Location: Fours
(44.3167°N, 6.7000°E)
Time: 01:57:41
(UTC+00:00)

Iridium 4 Rocket - Pass Details

Date: 16 October 2021
Orbit: 586 x 903 km, 86.9° (Epoch: 02 December)

Event Time Altitude Azimuth Distance (km) Brightness Sun altitude
Rises 17:46:07 0° 7° (N) 2,880 6.4 -11.3°
Reaches altitude 10° 17:48:27 10° 17° (NNE) 2,002 5.5 -11.7°
Maximum altitude 17:52:27 33° 82° (E) 1,092 3.8 -12.4°
Drops below altitude 10° 17:56:42 10° 147° (SSE) 2,136 5.5 -13.2°
Sets 17:59:15 0° 157° (SSE) 3,104 6.4 -13.6°
